Budapest Ferihegy, Hungary

11:04 AM CET on February 25, 2018 (GMT +0100)
Ferihegy

Weather History for LHBP - September, 2013

Change the Weather History Date:

Thursday, September 19, 2013

  Actual Average Record
Temperature  
Mean Temperature 56 °F -  
Max Temperature 60 °F 62 °F 87 °F (2011)
Min Temperature 51 °F 43 °F 41 °F (2001)
Degree Days  
Heating Degree Days 10    
Growing Degree Days 6 (Base 50)    
Moisture  
Dew Point 47 °F    
Average Humidity 71    
Maximum Humidity 100    
Minimum Humidity 45    
Precipitation  
Precipitation 0.00 in - - ()
Sea Level Pressure  
Sea Level Pressure 29.73 in    
Wind  
Wind Speed 10 mph ()    
Max Wind Speed 29 mph    
Max Gust Speed 38 mph    
Visibility 6.2 miles    
Events      
Averages and records for this station are not official NWS values.
T = Trace of Precipitation, MM = Missing Value Source: Averaged Metar Reports

Daily Weather History Graph

Daily Weather History Graph

Search for Another Location

Airport or City:

Trip Planner

Search our weather history database for the weather conditions in past years. The results will help you decide how hot, cold, wet, or windy it might be!

Date:

Astronomy

Sep. 19, 2013 Rise Set
Actual Time 6:25 AM CEST 6:46 PM CEST
Civil Twilight 5:54 AM CEST 7:17 PM CEST
Nautical Twilight 5:18 AM CEST 7:53 PM CEST
Astronomical Twilight 4:40 AM CEST 8:31 PM CEST
Moon 6:30 PM CEST (9/19) 6:16 AM CEST (9/19)
Length of Visible Light 13h 22m
Length of Day
12h 21m
Full, 100% of the Moon is Illuminated
Sep 19
Full
Sep 19
Full
Sep 27
Last Quarter
Oct 5
New
Oct 12
First Quarter

Hourly Weather History & Observations

Time (CEST) Temp. Dew Point Humidity Pressure Visibility Wind Dir Wind Speed Gust Speed Precip Events Conditions
12:00 AM 55.4 °F 51.8 °F 88% 29.56 in - Variable 3.5 mph - N/A   Clear
12:30 AM 53.6 °F 51.8 °F 94% 29.56 in - SE 4.6 mph - N/A   Clear
1:00 AM 53.6 °F 51.8 °F 94% 29.56 in - SSE 5.8 mph - N/A   Clear
1:30 AM 53.6 °F 51.8 °F 94% 29.56 in - Variable 2.3 mph - N/A   Clear
2:00 AM 51.8 °F 51.8 °F 100% 29.56 in - Variable 3.5 mph - N/A   Clear
2:30 AM 55.4 °F 55.4 °F 100% 29.56 in - West 5.8 mph - N/A   Clear
3:00 AM 55.4 °F 51.8 °F 88% 29.56 in 6.2 mi WSW 6.9 mph - N/A   Scattered Clouds
3:30 AM 55.4 °F 51.8 °F 88% 29.56 in 6.2 mi SW 6.9 mph - N/A   Mostly Cloudy
4:00 AM 55.4 °F 51.8 °F 88% 29.56 in 6.2 mi Variable 3.5 mph - N/A   Scattered Clouds
4:30 AM 55.4 °F 53.6 °F 94% 29.59 in 6.2 mi West 10.4 mph - N/A   Mostly Cloudy
5:00 AM 57.2 °F 53.6 °F 88% 29.59 in 6.2 mi West 13.8 mph - N/A   Scattered Clouds
5:30 AM 55.4 °F 53.6 °F 94% 29.59 in 6.2 mi WNW 9.2 mph - N/A   Scattered Clouds
6:00 AM 55.4 °F 53.6 °F 94% 29.59 in - West 10.4 mph - N/A   Clear
6:30 AM 55.4 °F 51.8 °F 88% 29.62 in 6.2 mi West 12.7 mph - N/A   Mostly Cloudy
7:00 AM 55.4 °F 50.0 °F 82% 29.65 in 6.2 mi West 10.4 mph - N/A   Mostly Cloudy
7:30 AM 55.4 °F 50.0 °F 82% 29.65 in - WNW 11.5 mph - N/A   Clear
8:00 AM 55.4 °F 50.0 °F 82% 29.65 in 6.2 mi WNW 13.8 mph - N/A   Mostly Cloudy
8:30 AM 55.4 °F 50.0 °F 82% 29.68 in 6.2 mi WNW 12.7 mph - N/A   Mostly Cloudy
9:00 AM 55.4 °F 50.0 °F 82% 29.68 in 6.2 mi NW 15.0 mph - N/A   Mostly Cloudy
9:30 AM 57.2 °F 48.2 °F 72% 29.71 in 6.2 mi NW 11.5 mph - N/A   Mostly Cloudy
10:00 AM 59.0 °F 44.6 °F 59% 29.68 in 6.2 mi NW 17.3 mph - N/A   Mostly Cloudy
10:30 AM 59.0 °F 44.6 °F 59% 29.71 in 6.2 mi NW 18.4 mph - N/A   Mostly Cloudy
11:00 AM 59.0 °F 42.8 °F 55% 29.74 in 6.2 mi WNW 23.0 mph - N/A   Mostly Cloudy
11:30 AM 57.2 °F 42.8 °F 59% 29.74 in 6.2 mi West 24.2 mph 38.0 mph N/A   Mostly Cloudy
12:00 PM 57.2 °F 44.6 °F 63% 29.74 in 6.2 mi WNW 20.7 mph - N/A   Mostly Cloudy
12:30 PM 57.2 °F 44.6 °F 63% 29.74 in 6.2 mi WNW 19.6 mph - N/A   Mostly Cloudy
1:00 PM 60.8 °F 42.8 °F 52% 29.77 in 6.2 mi WNW 25.3 mph - N/A   Mostly Cloudy
1:30 PM 59.0 °F 41.0 °F 51% 29.77 in 6.2 mi WNW 28.8 mph - N/A   Mostly Cloudy
2:00 PM 60.8 °F 42.8 °F 52% 29.77 in 6.2 mi WNW 23.0 mph - N/A   Mostly Cloudy
2:30 PM 60.8 °F 41.0 °F 48% 29.77 in 6.2 mi NW 23.0 mph 35.7 mph N/A   Scattered Clouds
3:00 PM 60.8 °F 39.2 °F 45% 29.80 in - WNW 25.3 mph 38.0 mph N/A   Clear
3:30 PM 60.8 °F 39.2 °F 45% 29.80 in - WNW 23.0 mph - N/A   Clear
4:00 PM 60.8 °F 41.0 °F 48% 29.80 in - NW 17.3 mph - N/A   Clear
4:30 PM 60.8 °F 41.0 °F 48% 29.80 in - WNW 23.0 mph 34.5 mph N/A   Clear
5:00 PM 60.8 °F 41.0 °F 48% 29.80 in - WNW 20.7 mph - N/A   Clear
5:30 PM 60.8 °F 41.0 °F 48% 29.83 in - WNW 21.9 mph - N/A   Clear
6:00 PM 59.0 °F 41.0 °F 51% 29.83 in - WNW 19.6 mph - N/A   Clear
6:30 PM 59.0 °F 42.8 °F 55% 29.86 in - WNW 16.1 mph - N/A   Clear
7:00 PM 57.2 °F 42.8 °F 59% 29.86 in - WNW 15.0 mph - N/A   Clear
7:30 PM 57.2 °F 44.6 °F 63% 29.86 in - West 12.7 mph - N/A   Clear
8:00 PM 55.4 °F 44.6 °F 67% 29.89 in - West 10.4 mph - N/A   Clear
8:30 PM 55.4 °F 44.6 °F 67% 29.89 in - West 6.9 mph - N/A   Clear
9:00 PM 55.4 °F 44.6 °F 67% 29.89 in - West 11.5 mph - N/A   Clear
9:30 PM 55.4 °F 44.6 °F 67% 29.92 in - West 9.2 mph - N/A   Clear
10:00 PM 53.6 °F 44.6 °F 72% 29.92 in - WSW 5.8 mph - N/A   Clear
10:30 PM 51.8 °F 44.6 °F 76% 29.92 in - West 4.6 mph - N/A   Clear
11:00 PM 51.8 °F 44.6 °F 76% 29.92 in - WNW 9.2 mph - N/A   Clear
11:30 PM 51.8 °F 46.4 °F 82% 29.92 in - West 10.4 mph - N/A   Clear